• In Uzbekistan
  • List of Countries
  • For 7 days
  • Water Temperature
  • Satellite Maps
  • Weather Map
  • Weather Widgets
  • user-avatar
    Login

    Hourly Weather Budapest

    Today, 11 December, Monday

    Time Temperature Precipitation Wind Pressure Humidity
    00:00 0°C° 0.4 mm 7 mps 744 mmHg 65%
    01:00 0°C° 0.4 mm 7 mps 744 mmHg 69%
    02:00 +2°C° 0.6 mm 7 mps 743 mmHg 71%
    03:00 +2°C° 0.6 mm 7 mps 743 mmHg 73%
    04:00 +2°C° 0.6 mm 7 mps 743 mmHg 76%
    05:00 +3°C° 0.2 mm 7 mps 742 mmHg 75%
    06:00 +2°C° 0.2 mm 8 mps 742 mmHg 74%
    07:00 +4°C° 0.2 mm 8 mps 742 mmHg 73%
    08:00 +6°C° 0 mm 8 mps 742 mmHg 71%
    09:00 +7°C° 0 mm 9 mps 743 mmHg 70%
    10:00 +8°C° 0 mm 9 mps 743 mmHg 68%
    11:00 +10°C° 0 mm 9 mps 743 mmHg 66%
    12:00 +11°C° 0 mm 10 mps 743 mmHg 65%
    13:00 +12°C° 0 mm 10 mps 743 mmHg 64%
    14:00 +12°C° 0.1 mm 10 mps 743 mmHg 63%
    15:00 +12°C° 0.1 mm 10 mps 743 mmHg 63%
    16:00 +12°C° 0.1 mm 10 mps 743 mmHg 62%
    17:00 +12°C° 0 mm 10 mps 744 mmHg 63%
    18:00 +11°C° 0 mm 10 mps 744 mmHg 63%
    19:00 +11°C° 0 mm 9 mps 744 mmHg 64%
    20:00 +11°C° 0 mm 9 mps 744 mmHg 64%
    21:00 +11°C° 0 mm 9 mps 744 mmHg 65%
    22:00 +10°C° 0 mm 9 mps 744 mmHg 65%
    23:00 +10°C° 0 mm 9 mps 745 mmHg 66%

    Tomorrow, 12 December, Tuesday

    Time Temperature Precipitation Wind Pressure Humidity
    00:00 +10°C° 0 mm 9 mps 745 mmHg 66%
    01:00 +10°C° 0 mm 9 mps 745 mmHg 67%
    02:00 +10°C° 0 mm 8 mps 745 mmHg 68%
    03:00 +10°C° 0 mm 8 mps 744 mmHg 69%
    04:00 +9°C° 0 mm 8 mps 744 mmHg 70%
    05:00 +9°C° 0 mm 8 mps 745 mmHg 70%
    06:00 +9°C° 0 mm 7 mps 745 mmHg 71%
    07:00 +9°C° 0 mm 7 mps 746 mmHg 72%
    08:00 +10°C° 0 mm 7 mps 746 mmHg 69%
    09:00 +11°C° 0 mm 8 mps 747 mmHg 65%
    10:00 +12°C° 0 mm 8 mps 748 mmHg 62%
    11:00 +13°C° 0 mm 8 mps 748 mmHg 60%
    12:00 +15°C° 0 mm 7 mps 748 mmHg 58%
    13:00 +16°C° 0 mm 7 mps 748 mmHg 56%
    14:00 +15°C° 0 mm 6 mps 748 mmHg 60%
    15:00 +13°C° 0 mm 5 mps 749 mmHg 64%
    16:00 +12°C° 0 mm 4 mps 749 mmHg 69%
    17:00 +11°C° 0 mm 4 mps 749 mmHg 71%
    18:00 +9°C° 0 mm 5 mps 750 mmHg 73%
    19:00 +8°C° 0 mm 5 mps 750 mmHg 76%
    20:00 +7°C° 0.3 mm 5 mps 751 mmHg 75%
    21:00 +5°C° 0.3 mm 6 mps 752 mmHg 75%
    22:00 +4°C° 0.3 mm 6 mps 752 mmHg 74%
    23:00 +4°C° 0.6 mm 6 mps 753 mmHg 73%

    Day after tomorrow, 13 December, Wednesday

    Time Temperature Precipitation Wind Pressure Humidity
    00:00 +4°C° 0.6 mm 6 mps 753 mmHg 71%
    01:00 +3°C° 0.6 mm 6 mps 754 mmHg 70%
    02:00 +3°C° 0.2 mm 5 mps 754 mmHg 69%
    03:00 +3°C° 0.2 mm 5 mps 754 mmHg 67%
    04:00 +3°C° 0.2 mm 5 mps 755 mmHg 66%
    05:00 +3°C° 0.1 mm 5 mps 755 mmHg 66%
    06:00 +4°C° 0.1 mm 4 mps 756 mmHg 67%
    07:00 +3°C° 0.1 mm 4 mps 756 mmHg 67%
    08:00 +3°C° 0 mm 4 mps 756 mmHg 67%
    09:00 +4°C° 0 mm 4 mps 757 mmHg 67%
    10:00 +4°C° 0 mm 3 mps 757 mmHg 67%
    11:00 +4°C° 0 mm 3 mps 757 mmHg 65%
    12:00 +4°C° 0 mm 3 mps 757 mmHg 63%
    13:00 +4°C° 0 mm 3 mps 756 mmHg 61%
    14:00 +5°C° 0 mm 2 mps 756 mmHg 63%
    15:00 +4°C° 0 mm 2 mps 756 mmHg 66%
    16:00 +5°C° 0 mm 1 mps 756 mmHg 68%
    17:00 +4°C° 0 mm 1 mps 755 mmHg 70%
    18:00 +4°C° 0 mm 1 mps 755 mmHg 72%
    19:00 +3°C° 0 mm 1 mps 755 mmHg 74%
    20:00 +3°C° 0 mm 1 mps 754 mmHg 75%
    21:00 +2°C° 0 mm 2 mps 754 mmHg 77%
    22:00 +2°C° 0 mm 2 mps 754 mmHg 78%
    23:00 +1°C° 0 mm 2 mps 753 mmHg 80%

    14 December, Thursday

    Time Temperature Precipitation Wind Pressure Humidity
    00:00 +1°C° 0 mm 2 mps 753 mmHg 82%
    01:00 0°C° 0 mm 3 mps 752 mmHg 84%
    02:00 0°C° 0 mm 3 mps 752 mmHg 86%
    03:00 0°C° 0 mm 3 mps 752 mmHg 88%
    04:00 0°C° 0 mm 3 mps 751 mmHg 90%
    05:00 0°C° 0 mm 3 mps 751 mmHg 91%
    06:00 0°C° 0 mm 3 mps 751 mmHg 91%
    07:00 +1°C° 0 mm 3 mps 751 mmHg 92%
    08:00 +1°C° 0 mm 4 mps 751 mmHg 87%
    09:00 +3°C° 0 mm 4 mps 750 mmHg 83%
    10:00 +4°C° 0 mm 4 mps 750 mmHg 78%
    11:00 +5°C° 0 mm 4 mps 750 mmHg 76%
    12:00 +6°C° 0 mm 4 mps 749 mmHg 73%
    13:00 +7°C° 0 mm 4 mps 749 mmHg 71%
    14:00 +6°C° 0.8 mm 4 mps 748 mmHg 77%
    15:00 +6°C° 0.8 mm 5 mps 748 mmHg 83%
    16:00 +6°C° 0.8 mm 5 mps 748 mmHg 89%
    17:00 +6°C° 0.3 mm 5 mps 747 mmHg 86%
    18:00 +7°C° 0.3 mm 6 mps 747 mmHg 83%
    19:00 +7°C° 0.3 mm 6 mps 746 mmHg 81%
    20:00 +7°C° 0 mm 6 mps 746 mmHg 79%
    21:00 +6°C° 0 mm 7 mps 745 mmHg 77%
    22:00 +6°C° 0 mm 7 mps 745 mmHg 74%
    23:00 +8°C° 0 mm 7 mps 744 mmHg 74%

    15 December, Friday

    Time Temperature Precipitation Wind Pressure Humidity
    00:00 +7°C° 0 mm 8 mps 744 mmHg 74%
    01:00 +7°C° 0 mm 8 mps 743 mmHg 73%
    02:00 +7°C° 0 mm 8 mps 743 mmHg 73%
    03:00 +9°C° 0 mm 8 mps 742 mmHg 73%
    04:00 +9°C° 0 mm 8 mps 742 mmHg 73%
    05:00 +7°C° 0.2 mm 8 mps 742 mmHg 74%
    06:00 +8°C° 0.2 mm 7 mps 743 mmHg 75%
    07:00 +8°C° 0.2 mm 7 mps 744 mmHg 76%
    08:00 +7°C° 0.8 mm 6 mps 744 mmHg 76%
    09:00 +6°C° 0.8 mm 4 mps 745 mmHg 76%
    10:00 +5°C° 0.8 mm 3 mps 746 mmHg 76%
    11:00 +5°C° 0.4 mm 3 mps 746 mmHg 74%
    12:00 +6°C° 0.4 mm 2 mps 746 mmHg 73%
    13:00 +6°C° 0.4 mm 2 mps 746 mmHg 72%
    14:00 +6°C° 0.1 mm 2 mps 746 mmHg 72%
    15:00 +7°C° 0.1 mm 1 mps 746 mmHg 72%
    16:00 +6°C° 0.1 mm 1 mps 746 mmHg 71%
    17:00 +5°C° 0.3 mm 2 mps 745 mmHg 72%
    18:00 +4°C° 0.3 mm 3 mps 745 mmHg 73%
    19:00 +4°C° 0.3 mm 3 mps 745 mmHg 74%
    20:00 +3°C° 1.4 mm 4 mps 744 mmHg 76%
    21:00 +3°C° 1.4 mm 4 mps 744 mmHg 78%
    22:00 +2°C° 1.4 mm 5 mps 743 mmHg 81%
    23:00 +1°C° 0.7 mm 4 mps 743 mmHg 83%

    16 December, Saturday

    Time Temperature Precipitation Wind Pressure Humidity
    00:00 +1°C° 0.7 mm 4 mps 742 mmHg 85%
    01:00 +1°C° 0.7 mm 4 mps 742 mmHg 87%
    02:00 +1°C° 0.1 mm 4 mps 742 mmHg 87%
    03:00 +1°C° 0.1 mm 4 mps 742 mmHg 87%
    04:00 +1°C° 0.1 mm 4 mps 742 mmHg 87%
    05:00 +2°C° 0.1 mm 3 mps 743 mmHg 86%
    06:00 +2°C° 0.1 mm 3 mps 743 mmHg 85%
    07:00 +1°C° 0.1 mm 3 mps 743 mmHg 84%
    08:00 +2°C° 0.1 mm 3 mps 743 mmHg 84%
    09:00 +2°C° 0.1 mm 3 mps 744 mmHg 84%
    10:00 +2°C° 0.1 mm 3 mps 744 mmHg 84%
    11:00 +2°C° 0.3 mm 3 mps 744 mmHg 84%
    12:00 +2°C° 0.3 mm 3 mps 744 mmHg 84%
    13:00 +2°C° 0.3 mm 3 mps 744 mmHg 84%
    14:00 +2°C° 0.6 mm 3 mps 744 mmHg 85%
    15:00 +2°C° 0.6 mm 3 mps 745 mmHg 86%
    16:00 +2°C° 0.6 mm 3 mps 745 mmHg 87%
    17:00 +2°C° 0.3 mm 3 mps 745 mmHg 86%
    18:00 +1°C° 0.3 mm 4 mps 746 mmHg 86%
    19:00 +1°C° 0.3 mm 4 mps 746 mmHg 85%
    20:00 +1°C° 0.1 mm 4 mps 747 mmHg 85%
    21:00 +1°C° 0.1 mm 4 mps 747 mmHg 84%
    22:00 +1°C° 0.1 mm 4 mps 747 mmHg 84%
    23:00 +1°C° 0 mm 4 mps 747 mmHg 82%
    Show more